Terminal Aerodrome Forecast
Issued by NWS

Home | Current Version | Previous Version | Text Only | Print | Product List | Glossary On
Versions: 1 2 3 4 5 6 7 8 9 10 11 12
000
FTUS45 KABQ 260522
TAFFMN
TAF
KFMN 260522Z 2606/2706 28006KT P6SM SCT120
     FM260800 08009KT P6SM SCT120
     FM261700 23008KT P6SM FEW080 BKN120
     FM262000 28015G22KT P6SM SCT070 BKN120=

USA.gov is the U.S. government's official web portal to all federal, state and local government web resources and services.